When you browse on this site, cookies collect data to enhance your experience and personalize the content and advertising you see.
Visit our Privacy Policy to learn more. By continuing to use the site, you agree to this use of cookies and data.
  • In Switzerland
  • List of Countries
  • For 7 days
  • Water Temperature
  • Weather Map
  • Weather Widgets
  • user-avatar
    Login

    Hourly Weather Saidpur

    Today, 22 October, Tuesday

    Time Temperature Precipitation Wind Pressure Humidity
    00:00 +25°C° 0 mm 2 mps 754 mmHg 80%
    01:00 +24°C° 0 mm 2 mps 754 mmHg 82%
    02:00 +24°C° 0 mm 2 mps 754 mmHg 83%
    03:00 +24°C° 0 mm 2 mps 753 mmHg 84%
    04:00 +23°C° 0 mm 2 mps 754 mmHg 84%
    05:00 +23°C° 0 mm 2 mps 754 mmHg 85%
    06:00 +23°C° 0 mm 2 mps 754 mmHg 93%
    07:00 +25°C° 0 mm 2 mps 754 mmHg 85%
    08:00 +26°C° 0 mm 3 mps 755 mmHg 78%
    09:00 +28°C° 0 mm 3 mps 755 mmHg 70%
    10:00 +29°C° 0 mm 3 mps 755 mmHg 63%
    11:00 +30°C° 0 mm 3 mps 754 mmHg 55%
    12:00 +33°C° 0 mm 3 mps 754 mmHg 48%
    13:00 +33°C° 0 mm 3 mps 753 mmHg 48%
    14:00 +33°C° 0 mm 3 mps 753 mmHg 48%
    15:00 +33°C° 0 mm 3 mps 752 mmHg 49%
    16:00 +30°C° 0 mm 3 mps 752 mmHg 53%
    17:00 +28°C° 0 mm 2 mps 752 mmHg 58%
    18:00 +27°C° 0 mm 2 mps 752 mmHg 62%
    19:00 +26°C° 0 mm 1 mps 753 mmHg 63%
    20:00 +26°C° 0 mm 1 mps 753 mmHg 64%
    21:00 +25°C° 0 mm 1 mps 754 mmHg 65%
    22:00 +25°C° 0 mm 1 mps 754 mmHg 67%
    23:00 +24°C° 0 mm 1 mps 754 mmHg 68%

    Tomorrow, 23 October, Wednesday

    Time Temperature Precipitation Wind Pressure Humidity
    00:00 +24°C° 0 mm 1 mps 754 mmHg 69%
    01:00 +22°C° 0 mm 0 mps 754 mmHg 70%
    02:00 +21°C° 0 mm 0 mps 753 mmHg 71%
    03:00 +21°C° 0 mm 0 mps 753 mmHg 72%
    04:00 +21°C° 0 mm 0 mps 753 mmHg 73%
    05:00 +20°C° 0 mm 0 mps 753 mmHg 73%
    06:00 +20°C° 0 mm 0 mps 753 mmHg 74%
    07:00 +22°C° 0 mm 0 mps 754 mmHg 70%
    08:00 +23°C° 0 mm 0 mps 754 mmHg 66%
    09:00 +25°C° 0 mm 0 mps 755 mmHg 62%
    10:00 +26°C° 0 mm 0 mps 755 mmHg 60%
    11:00 +27°C° 0 mm 0 mps 755 mmHg 58%
    12:00 +27°C° 0 mm 0 mps 754 mmHg 56%
    13:00 +29°C° 0 mm 1 mps 754 mmHg 60%
    14:00 +28°C° 0 mm 1 mps 753 mmHg 64%
    15:00 +28°C° 0 mm 1 mps 752 mmHg 68%
    16:00 +27°C° 0 mm 1 mps 753 mmHg 69%
    17:00 +26°C° 0 mm 1 mps 753 mmHg 70%
    18:00 +26°C° 0 mm 1 mps 753 mmHg 70%
    19:00 +26°C° 0 mm 1 mps 753 mmHg 68%
    20:00 +26°C° 0 mm 1 mps 754 mmHg 67%
    21:00 +23°C° 0 mm 0 mps 754 mmHg 65%
    22:00 +23°C° 0 mm 0 mps 754 mmHg 65%
    23:00 +25°C° 0 mm 1 mps 754 mmHg 65%

    Day after tomorrow, 24 October, Thursday

    Time Temperature Precipitation Wind Pressure Humidity
    00:00 +25°C° 0 mm 1 mps 754 mmHg 64%
    01:00 +25°C° 0 mm 1 mps 754 mmHg 64%
    02:00 +25°C° 0 mm 1 mps 754 mmHg 65%
    03:00 +25°C° 0 mm 2 mps 754 mmHg 65%
    04:00 +24°C° 0 mm 1 mps 754 mmHg 66%
    05:00 +24°C° 0 mm 1 mps 754 mmHg 67%
    06:00 +22°C° 0 mm 0 mps 755 mmHg 68%
    07:00 +24°C° 0 mm 1 mps 755 mmHg 70%
    08:00 +25°C° 0 mm 1 mps 756 mmHg 71%
    09:00 +25°C° 0 mm 1 mps 757 mmHg 73%
    10:00 +25°C° 0 mm 1 mps 756 mmHg 74%
    11:00 +25°C° 0 mm 1 mps 756 mmHg 76%
    12:00 +25°C° 0 mm 1 mps 756 mmHg 77%
    13:00 +24°C° 0.1 mm 1 mps 756 mmHg 79%
    14:00 +24°C° 0.1 mm 1 mps 755 mmHg 82%
    15:00 +23°C° 0.1 mm 1 mps 755 mmHg 84%
    16:00 +23°C° 0.2 mm 1 mps 755 mmHg 87%
    17:00 +22°C° 0.2 mm 1 mps 755 mmHg 89%
    18:00 +22°C° 0.2 mm 1 mps 755 mmHg 91%
    19:00 +22°C° 0 mm 1 mps 756 mmHg 92%
    20:00 +22°C° 0 mm 1 mps 757 mmHg 92%
    21:00 +21°C° 0 mm 1 mps 757 mmHg 93%
    22:00 +20°C° 0.3 mm 2 mps 757 mmHg 93%
    23:00 +20°C° 0.3 mm 2 mps 757 mmHg 94%

    25 October, Friday

    Time Temperature Precipitation Wind Pressure Humidity
    00:00 +20°C° 0.3 mm 2 mps 757 mmHg 95%
    01:00 +20°C° 0.2 mm 2 mps 757 mmHg 95%
    02:00 +20°C° 0.2 mm 2 mps 756 mmHg 94%
    03:00 +20°C° 0.2 mm 3 mps 756 mmHg 94%
    04:00 +20°C° 0.6 mm 2 mps 756 mmHg 95%
    05:00 +20°C° 0.6 mm 2 mps 756 mmHg 95%
    06:00 +19°C° 0.6 mm 2 mps 756 mmHg 95%
    07:00 +20°C° 0.2 mm 2 mps 756 mmHg 95%
    08:00 +20°C° 0.2 mm 3 mps 757 mmHg 94%
    09:00 +20°C° 0.2 mm 3 mps 757 mmHg 94%
    10:00 +21°C° 0.5 mm 3 mps 757 mmHg 93%
    11:00 +21°C° 0.5 mm 2 mps 757 mmHg 92%
    12:00 +23°C° 0.5 mm 2 mps 756 mmHg 91%
    13:00 +23°C° 0.2 mm 2 mps 756 mmHg 89%
    14:00 +23°C° 0.2 mm 2 mps 756 mmHg 88%
    15:00 +24°C° 0.2 mm 2 mps 755 mmHg 86%
    16:00 +23°C° 0 mm 2 mps 755 mmHg 89%
    17:00 +21°C° 0 mm 2 mps 755 mmHg 92%
    18:00 +22°C° 0 mm 1 mps 755 mmHg 94%
    19:00 +22°C° 0 mm 1 mps 756 mmHg 95%
    20:00 +21°C° 0 mm 1 mps 756 mmHg 95%
    21:00 +21°C° 0 mm 1 mps 757 mmHg 96%
    22:00 +20°C° 0 mm 2 mps 757 mmHg 95%
    23:00 +20°C° 0 mm 2 mps 757 mmHg 95%

    26 October, Saturday

    Time Temperature Precipitation Wind Pressure Humidity
    00:00 +20°C° 0 mm 2 mps 757 mmHg 95%
    01:00 +20°C° 0 mm 2 mps 756 mmHg 95%
    02:00 +20°C° 0 mm 2 mps 756 mmHg 95%
    03:00 +21°C° 0 mm 1 mps 756 mmHg 95%
    04:00 +21°C° 0 mm 1 mps 756 mmHg 95%
    05:00 +20°C° 0 mm 2 mps 756 mmHg 95%
    06:00 +19°C° 0 mm 2 mps 756 mmHg 96%
    07:00 +20°C° 0 mm 2 mps 757 mmHg 93%
    08:00 +21°C° 0 mm 2 mps 758 mmHg 91%
    09:00 +22°C° 0 mm 3 mps 758 mmHg 89%
    10:00 +23°C° 0 mm 2 mps 758 mmHg 88%
    11:00 +24°C° 0 mm 2 mps 758 mmHg 86%
    12:00 +24°C° 0 mm 2 mps 758 mmHg 85%
    13:00 +24°C° 0 mm 1 mps 757 mmHg 85%
    14:00 +24°C° 0 mm 1 mps 756 mmHg 84%
    15:00 +22°C° 0 mm 0 mps 756 mmHg 84%
    16:00 +22°C° 0 mm 0 mps 756 mmHg 86%
    17:00 +21°C° 0 mm 0 mps 756 mmHg 88%
    18:00 +21°C° 0 mm 0 mps 756 mmHg 90%
    19:00 +21°C° 0 mm 0 mps 757 mmHg 90%
    20:00 +21°C° 0 mm 0 mps 757 mmHg 90%
    21:00 +21°C° 0 mm 0 mps 758 mmHg 90%
    22:00 +23°C° 0 mm 1 mps 758 mmHg 90%
    23:00 +23°C° 0 mm 1 mps 757 mmHg 90%

    27 October, Sunday

    Time Temperature Precipitation Wind Pressure Humidity
    00:00 +23°C° 0 mm 1 mps 757 mmHg 90%
    01:00 +23°C° 0 mm 2 mps 757 mmHg 90%
    02:00 +23°C° 0 mm 2 mps 757 mmHg 90%
    03:00 +23°C° 0 mm 2 mps 756 mmHg 91%
    04:00 +23°C° 0 mm 2 mps 756 mmHg 91%
    05:00 +23°C° 0 mm 2 mps 756 mmHg 90%
    06:00 +23°C° 0 mm 1 mps 756 mmHg 90%
    07:00 +23°C° 0 mm 2 mps 757 mmHg 88%
    08:00 +24°C° 0 mm 2 mps 758 mmHg 86%
    09:00 +24°C° 0 mm 2 mps 758 mmHg 85%
    10:00 +25°C° 0 mm 2 mps 758 mmHg 78%
    11:00 +27°C° 0 mm 2 mps 757 mmHg 72%
    12:00 +28°C° 0 mm 3 mps 757 mmHg 66%
    13:00 +28°C° 0 mm 3 mps 756 mmHg 67%
    14:00 +28°C° 0 mm 2 mps 756 mmHg 68%
    15:00 +28°C° 0 mm 2 mps 755 mmHg 70%
    16:00 +27°C° 0 mm 2 mps 756 mmHg 72%
    17:00 +26°C° 0 mm 2 mps 756 mmHg 75%
    18:00 +25°C° 0 mm 2 mps 756 mmHg 77%
    19:00 +25°C° 0 mm 2 mps 756 mmHg 77%
    20:00 +24°C° 0 mm 2 mps 756 mmHg 76%
    21:00 +24°C° 0 mm 1 mps 756 mmHg 76%
    22:00 +24°C° 0 mm 1 mps 756 mmHg 77%
    23:00 +24°C° 0 mm 1 mps 756 mmHg 78%

    28 October, Monday

    Time Temperature Precipitation Wind Pressure Humidity
    00:00 +23°C° 0 mm 1 mps 756 mmHg 79%
    01:00 +23°C° 0 mm 2 mps 756 mmHg 81%
    02:00 +23°C° 0 mm 2 mps 756 mmHg 83%
    03:00 +21°C° 0 mm 2 mps 755 mmHg 85%
    04:00 +21°C° 0 mm 2 mps 756 mmHg 86%
    05:00 +21°C° 0 mm 2 mps 756 mmHg 87%
    06:00 +21°C° 0 mm 1 mps 756 mmHg 89%
    07:00 +23°C° 0 mm 2 mps 756 mmHg 84%
    08:00 +24°C° 0 mm 2 mps 757 mmHg 79%
    09:00 +26°C° 0 mm 2 mps 758 mmHg 74%
    10:00 +27°C° 0 mm 2 mps 757 mmHg 70%
    11:00 +28°C° 0 mm 2 mps 757 mmHg 66%
    12:00 +29°C° 0 mm 2 mps 756 mmHg 61%
    13:00 +29°C° 0 mm 2 mps 756 mmHg 60%
    14:00 +29°C° 0 mm 2 mps 755 mmHg 59%
    15:00 +29°C° 0 mm 2 mps 755 mmHg 58%
    16:00 +28°C° 0 mm 1 mps 755 mmHg 62%
    17:00 +27°C° 0 mm 1 mps 755 mmHg 66%
    18:00 +24°C° 0 mm 0 mps 755 mmHg 70%
    19:00 +23°C° 0 mm 0 mps 755 mmHg 71%
    20:00 +25°C° 0 mm 1 mps 756 mmHg 73%
    21:00 +24°C° 0 mm 1 mps 756 mmHg 74%
    22:00 +24°C° 0 mm 1 mps 756 mmHg 75%
    23:00 +24°C° 0 mm 2 mps 756 mmHg 75%
    Show more